• In Uzbekistan
  • List of Countries
  • For 7 days
  • Water Temperature
  • Satellite Maps
  • Weather Map
  • Weather Widgets
  • user-avatar
    Login

    Hourly Weather Berat

    Today, 20 October, Friday

    Time Temperature Precipitation Wind Pressure Humidity
    00:00 +18°C° 0 mm 1 mps 747 mmHg 81%
    01:00 +18°C° 0 mm 1 mps 747 mmHg 81%
    02:00 +16°C° 0 mm 1 mps 746 mmHg 81%
    03:00 +16°C° 0 mm 1 mps 746 mmHg 81%
    04:00 +16°C° 0 mm 1 mps 746 mmHg 81%
    05:00 +16°C° 0 mm 1 mps 746 mmHg 79%
    06:00 +18°C° 0 mm 1 mps 747 mmHg 76%
    07:00 +18°C° 0 mm 1 mps 747 mmHg 74%
    08:00 +20°C° 0 mm 1 mps 747 mmHg 66%
    09:00 +22°C° 0 mm 1 mps 747 mmHg 57%
    10:00 +24°C° 0 mm 1 mps 747 mmHg 49%
    11:00 +25°C° 0 mm 2 mps 747 mmHg 46%
    12:00 +25°C° 0 mm 2 mps 747 mmHg 44%
    13:00 +26°C° 0 mm 2 mps 747 mmHg 41%
    14:00 +25°C° 0 mm 2 mps 747 mmHg 46%
    15:00 +24°C° 0 mm 2 mps 747 mmHg 50%
    16:00 +24°C° 0 mm 2 mps 746 mmHg 54%
    17:00 +21°C° 0 mm 2 mps 747 mmHg 63%
    18:00 +20°C° 0 mm 1 mps 747 mmHg 72%
    19:00 +19°C° 0 mm 1 mps 747 mmHg 80%
    20:00 +18°C° 0 mm 1 mps 748 mmHg 82%
    21:00 +18°C° 0 mm 1 mps 748 mmHg 84%
    22:00 +18°C° 0 mm 1 mps 748 mmHg 85%
    23:00 +16°C° 0 mm 1 mps 748 mmHg 85%

    Tomorrow, 21 October, Saturday

    Time Temperature Precipitation Wind Pressure Humidity
    00:00 +16°C° 0 mm 1 mps 748 mmHg 85%
    01:00 +16°C° 0 mm 1 mps 748 mmHg 85%
    02:00 +16°C° 0 mm 1 mps 748 mmHg 84%
    03:00 +15°C° 0 mm 1 mps 747 mmHg 84%
    04:00 +15°C° 0 mm 1 mps 747 mmHg 83%
    05:00 +16°C° 0 mm 1 mps 747 mmHg 80%
    06:00 +16°C° 0 mm 1 mps 747 mmHg 77%
    07:00 +16°C° 0 mm 1 mps 747 mmHg 74%
    08:00 +20°C° 0 mm 1 mps 747 mmHg 64%
    09:00 +22°C° 0 mm 1 mps 748 mmHg 54%
    10:00 +24°C° 0 mm 2 mps 748 mmHg 45%
    11:00 +24°C° 0 mm 2 mps 747 mmHg 42%
    12:00 +25°C° 0 mm 2 mps 747 mmHg 40%
    13:00 +26°C° 0 mm 3 mps 746 mmHg 38%
    14:00 +25°C° 0 mm 3 mps 746 mmHg 43%
    15:00 +24°C° 0 mm 3 mps 746 mmHg 48%
    16:00 +22°C° 0 mm 3 mps 746 mmHg 53%
    17:00 +20°C° 0 mm 3 mps 746 mmHg 62%
    18:00 +19°C° 0 mm 2 mps 746 mmHg 71%
    19:00 +17°C° 0 mm 2 mps 746 mmHg 80%
    20:00 +16°C° 0 mm 1 mps 746 mmHg 81%
    21:00 +16°C° 0 mm 1 mps 746 mmHg 82%
    22:00 +16°C° 0 mm 1 mps 746 mmHg 82%
    23:00 +15°C° 0 mm 1 mps 746 mmHg 82%

    Day after tomorrow, 22 October, Sunday

    Time Temperature Precipitation Wind Pressure Humidity
    00:00 +15°C° 0 mm 1 mps 746 mmHg 81%
    01:00 +15°C° 0 mm 1 mps 746 mmHg 80%
    02:00 +15°C° 0 mm 1 mps 746 mmHg 78%
    03:00 +14°C° 0 mm 1 mps 745 mmHg 76%
    04:00 +14°C° 0 mm 1 mps 745 mmHg 74%
    05:00 +15°C° 0 mm 1 mps 745 mmHg 70%
    06:00 +15°C° 0 mm 1 mps 745 mmHg 67%
    07:00 +16°C° 0 mm 1 mps 745 mmHg 63%
    08:00 +19°C° 0 mm 1 mps 745 mmHg 56%
    09:00 +20°C° 0 mm 2 mps 745 mmHg 49%
    10:00 +23°C° 0 mm 2 mps 745 mmHg 42%
    11:00 +24°C° 0 mm 2 mps 745 mmHg 43%
    12:00 +25°C° 0 mm 3 mps 744 mmHg 44%
    13:00 +25°C° 0 mm 3 mps 744 mmHg 45%
    14:00 +24°C° 0 mm 3 mps 744 mmHg 49%
    15:00 +24°C° 0 mm 3 mps 743 mmHg 54%
    16:00 +23°C° 0 mm 2 mps 743 mmHg 58%
    17:00 +20°C° 0 mm 2 mps 743 mmHg 65%
    18:00 +20°C° 0 mm 1 mps 743 mmHg 72%
    19:00 +18°C° 0 mm 1 mps 743 mmHg 79%
    20:00 +18°C° 0 mm 1 mps 743 mmHg 77%
    21:00 +18°C° 0 mm 1 mps 743 mmHg 76%
    22:00 +17°C° 0 mm 2 mps 743 mmHg 74%
    23:00 +17°C° 0 mm 2 mps 742 mmHg 73%

    23 October, Monday

    Time Temperature Precipitation Wind Pressure Humidity
    00:00 +17°C° 0 mm 2 mps 742 mmHg 71%
    01:00 +16°C° 0 mm 2 mps 741 mmHg 70%
    02:00 +16°C° 0.2 mm 3 mps 741 mmHg 70%
    03:00 +16°C° 0.2 mm 3 mps 740 mmHg 71%
    04:00 +14°C° 0.2 mm 3 mps 740 mmHg 72%
    05:00 +16°C° 0.1 mm 3 mps 740 mmHg 72%
    06:00 +16°C° 0.1 mm 3 mps 739 mmHg 71%
    07:00 +17°C° 0.1 mm 3 mps 739 mmHg 71%
    08:00 +18°C° 0.1 mm 3 mps 739 mmHg 66%
    09:00 +20°C° 0.1 mm 4 mps 739 mmHg 62%
    10:00 +21°C° 0.1 mm 4 mps 738 mmHg 57%
    11:00 +21°C° 0.1 mm 4 mps 738 mmHg 55%
    12:00 +21°C° 0.1 mm 4 mps 737 mmHg 53%
    13:00 +21°C° 0.1 mm 4 mps 736 mmHg 51%
    14:00 +20°C° 0.6 mm 4 mps 736 mmHg 56%
    15:00 +19°C° 0.6 mm 3 mps 736 mmHg 61%
    16:00 +18°C° 0.6 mm 3 mps 736 mmHg 66%
    17:00 +17°C° 0.7 mm 2 mps 736 mmHg 70%
    18:00 +16°C° 0.7 mm 2 mps 736 mmHg 74%
    19:00 +15°C° 0.7 mm 1 mps 736 mmHg 78%
    20:00 +15°C° 0.2 mm 1 mps 736 mmHg 78%
    21:00 +15°C° 0.2 mm 1 mps 736 mmHg 79%
    22:00 +14°C° 0.2 mm 2 mps 736 mmHg 79%
    23:00 +14°C° 0.5 mm 2 mps 736 mmHg 81%

    24 October, Tuesday

    Time Temperature Precipitation Wind Pressure Humidity
    00:00 +14°C° 0.5 mm 2 mps 735 mmHg 83%
    01:00 +12°C° 0.5 mm 3 mps 735 mmHg 85%
    02:00 +12°C° 0.1 mm 3 mps 735 mmHg 85%
    03:00 +12°C° 0.1 mm 3 mps 735 mmHg 86%
    04:00 +12°C° 0.1 mm 3 mps 735 mmHg 87%
    05:00 +12°C° 0.2 mm 3 mps 735 mmHg 85%
    06:00 +12°C° 0.2 mm 3 mps 735 mmHg 83%
    07:00 +12°C° 0.2 mm 3 mps 735 mmHg 81%
    08:00 +13°C° 0.1 mm 3 mps 735 mmHg 75%
    09:00 +14°C° 0.1 mm 4 mps 735 mmHg 68%
    10:00 +15°C° 0.1 mm 4 mps 735 mmHg 62%
    11:00 +15°C° 0.3 mm 4 mps 735 mmHg 62%
    12:00 +15°C° 0.3 mm 4 mps 735 mmHg 62%
    13:00 +15°C° 0.3 mm 5 mps 735 mmHg 61%
    14:00 +14°C° 0.2 mm 4 mps 735 mmHg 64%
    15:00 +14°C° 0.2 mm 4 mps 735 mmHg 66%
    16:00 +14°C° 0.2 mm 4 mps 735 mmHg 69%
    17:00 +13°C° 0.6 mm 4 mps 735 mmHg 73%
    18:00 +12°C° 0.6 mm 4 mps 735 mmHg 77%
    19:00 +12°C° 0.6 mm 3 mps 735 mmHg 82%
    20:00 +12°C° 0.1 mm 3 mps 735 mmHg 82%
    21:00 +12°C° 0.1 mm 3 mps 736 mmHg 82%
    22:00 +12°C° 0.1 mm 3 mps 736 mmHg 82%
    23:00 +12°C° 0 mm 3 mps 736 mmHg 82%

    25 October, Wednesday

    Time Temperature Precipitation Wind Pressure Humidity
    00:00 +12°C° 0 mm 3 mps 736 mmHg 82%
    01:00 +12°C° 0 mm 3 mps 736 mmHg 81%
    02:00 +12°C° 0 mm 3 mps 737 mmHg 82%
    03:00 +12°C° 0 mm 3 mps 737 mmHg 82%
    04:00 +12°C° 0 mm 3 mps 737 mmHg 82%
    05:00 +12°C° 0 mm 3 mps 738 mmHg 81%
    06:00 +12°C° 0 mm 3 mps 738 mmHg 80%
    07:00 +13°C° 0 mm 4 mps 739 mmHg 79%
    08:00 +14°C° 0 mm 4 mps 739 mmHg 73%
    09:00 +17°C° 0 mm 4 mps 740 mmHg 67%
    10:00 +18°C° 0 mm 4 mps 740 mmHg 61%
    11:00 +18°C° 0 mm 4 mps 740 mmHg 59%
    12:00 +19°C° 0 mm 4 mps 740 mmHg 57%
    13:00 +19°C° 0 mm 5 mps 741 mmHg 54%
    14:00 +19°C° 0 mm 4 mps 741 mmHg 56%
    15:00 +18°C° 0 mm 4 mps 742 mmHg 58%
    16:00 +18°C° 0 mm 4 mps 742 mmHg 60%
    17:00 +17°C° 0 mm 4 mps 743 mmHg 63%
    18:00 +15°C° 0 mm 4 mps 743 mmHg 67%
    19:00 +14°C° 0 mm 4 mps 744 mmHg 70%
    20:00 +13°C° 0 mm 4 mps 744 mmHg 72%
    21:00 +13°C° 0 mm 4 mps 745 mmHg 73%
    22:00 +13°C° 0 mm 4 mps 745 mmHg 75%
    23:00 +12°C° 0 mm 4 mps 746 mmHg 76%
    Show more